GW0329 Weather Reports


time (UTC)temp
C
wind
direction
speed
KPH
gust
KPH
rain 1hr
cm
rain 24hr
cm
rain mn
cm
humidity
%
barometer
mb
20260505140403 20 233 6.4 22.5 0.00 0.03 0.03 57 1007.6
20260505124817 19 243 9.7 16.1 0.00 0.03 0.03 59 1007.5
20260505124314 19 191 8.0 22.5 0.00 0.03 0.03 58 1007.4
20260505123810 19 228 14.5 17.7 0.00 0.03 0.03 58 1007.6
20260505123307 19 171 4.8 17.7 0.00 0.03 0.03 59 1007.5
20260505122803 18 207 11.3 20.9 0.00 0.03 0.03 60 1007.4
20260505122300 18 194 3.2 11.3 0.00 0.03 0.03 62 1007.3
20260505121756 18 168 4.8 19.3 0.00 0.03 0.03 61 1007.5
20260505121254 18 221 4.8 17.7 0.00 0.03 0.03 61 1007.4
20260505120750 18 240 9.7 20.9 0.00 0.03 0.03 62 1007.4
20260505120246 17 210 11.3 16.1 0.00 0.03 0.03 62 1007.4
20260505115744 17 190 8.0 12.9 0.00 0.03 0.03 63 1007.5
20260505115243 17 179 3.2 11.3 0.00 0.03 0.03 63 1007.5
20260505114740 17 217 17.7 24.1 0.00 0.03 0.03 63 1007.5
20260505114235 17 204 9.7 9.7 0.00 0.03 0.03 64 1007.3
20260505113732 17 226 9.7 22.5 0.00 0.03 0.03 63 1007.3
20260505113229 17 211 9.7 25.7 0.00 0.03 0.03 64 1007.3
20260505112725 17 202 6.4 16.1 0.00 0.03 0.03 64 1007.3
20260505112223 17 225 9.7 19.3 0.00 0.03 0.03 65 1007.3
20260505111723 17 233 4.8 9.7 0.00 0.03 0.03 65 1007.3
20260505111219 17 206 12.9 12.9 0.00 0.03 0.03 66 1007.1
20260505110715 16 172 4.8 14.5 0.00 0.03 0.03 66 1007.1
20260505110213 16 224 6.4 11.3 0.00 0.03 0.03 68 1007.2
20260505102148 16 200 6.4 11.3 0.00 0.03 0.03 69 1006.6
20260505101647 16 205 1.6 8.0 0.00 0.03 0.03 69 1006.5
20260505101143 16 208 6.4 12.9 0.00 0.03 0.03 69 1006.6
20260505100639 16 185 3.2 8.0 0.00 0.03 0.03 69 1006.5
20260505100136 16 180 6.4 19.3 0.00 0.03 0.03 69 1006.5
20260505095632 16 236 8.0 14.5 0.00 0.03 0.03 68 1006.5
20260505095129 16 196 8.0 12.9 0.00 0.03 0.03 69 1006.4
20260505094625 16 182 4.8 20.9 0.00 0.03 0.03 69 1006.2
20260505094122 16 178 4.8 9.7 0.00 0.03 0.03 69 1006.3
20260505093618 16 213 9.7 14.5 0.00 0.03 0.03 69 1006.1
20260505093115 16 170 11.3 16.1 0.00 0.03 0.03 69 1006.2
20260505092612 16 188 6.4 9.7 0.00 0.03 0.03 69 1006.0
20260505092112 16 179 4.8 9.7 0.00 0.03 0.03 69 1005.9
20260505091607 16 165 4.8 11.3 0.00 0.03 0.03 69 1005.8
20260505091106 16 220 11.3 16.1 0.00 0.03 0.03 69 1005.9
20260505090603 16 214 6.4 14.5 0.00 0.03 0.03 69 1006.0
20260505090101 16 167 6.4 9.7 0.00 0.03 0.03 70 1005.9
20260505085558 16 178 6.4 9.7 0.00 0.03 0.03 69 1005.9
20260505085057 16 211 4.8 9.7 0.00 0.03 0.03 70 1005.8
20260505084554 16 180 4.8 9.7 0.00 0.03 0.03 70 1005.8
20260505084052 16 174 6.4 16.1 0.00 0.03 0.03 70 1006.1
20260505083549 16 189 4.8 9.7 0.00 0.03 0.03 71 1006.0
20260505083046 16 173 4.8 16.1 0.00 0.03 0.03 71 1005.9
20260505082541 16 180 3.2 11.3 0.00 0.03 0.03 72 1005.9
20260505082039 16 179 4.8 9.7 0.00 0.03 0.03 73 1005.9
20260505081535 16 194 6.4 9.7 0.00 0.03 0.03 72 1006.0
20260505081032 16 202 6.4 11.3 0.00 0.03 0.03 72 1005.9
20260505080528 16 228 17.7 17.7 0.00 0.03 0.03 73 1005.8
20260505080025 16 189 9.7 11.3 0.00 0.03 0.03 73 1005.8
20260505075521 16 201 6.4 9.7 0.00 0.03 0.03 73 1005.7
20260505075018 16 185 4.8 11.3 0.00 0.03 0.03 73 1005.8
20260505074515 16 185 6.4 9.7 0.00 0.03 0.03 73 1005.7
20260505074012 16 180 8.0 17.7 0.00 0.03 0.03 73 1005.7
20260505073510 16 180 9.7 16.1 0.00 0.03 0.03 72 1005.7
20260505073008 16 176 9.7 11.3 0.00 0.03 0.03 72 1005.6
20260505072503 16 195 6.4 11.3 0.00 0.03 0.03 72 1005.8
20260505071959 16 209 8.0 19.3 0.00 0.03 0.03 71 1005.7
20260505071455 16 171 6.4 12.9 0.00 0.03 0.03 71 1005.6
20260505070953 16 170 4.8 9.7 0.00 0.03 0.03 70 1005.7
20260505070450 16 193 4.8 9.7 0.00 0.03 0.03 70 1005.6
20260505065946 16 186 8.0 19.3 0.00 0.03 0.03 69 1005.8
20260505065442 16 162 4.8 14.5 0.00 0.03 0.03 69 1005.5
20260505064939 16 188 9.7 16.1 0.00 0.03 0.03 68 1005.6
20260505064436 16 184 8.0 14.5 0.00 0.03 0.03 68 1005.6
20260505063934 16 194 6.4 9.7 0.00 0.03 0.03 68 1005.8
20260505063431 16 203 6.4 8.0 0.00 0.03 0.03 68 1005.6
20260505062927 16 204 20.9 27.4 0.00 0.03 0.03 68 1005.8
20260505062425 16 193 6.4 16.1 0.05 0.03 0.03 69 1006.0
20260505061921 17 184 11.3 16.1 0.18 0.03 0.03 68 1005.9
20260505061419 17 177 3.2 14.5 0.13 0.03 0.03 69 1005.7
20260505060916 17 215 8.0 19.3 0.00 0.00 0.00 65 1006.0
20260505060413 17 183 11.3 35.4 0.00 0.00 0.00 63 1006.0
20260505055910 17 208 9.7 16.1 0.00 0.00 0.00 62 1006.2
20260505055406 17 197 16.1 33.8 0.00 0.00 0.00 64 1006.4
20260505054903 17 207 4.8 11.3 0.00 0.00 0.00 65 1006.1
20260505054400 17 184 4.8 9.7 0.00 0.00 0.00 65 1006.0
20260505053858 17 203 4.8 6.4 0.00 0.00 0.00 65 1006.2
20260505053355 17 171 4.8 6.4 0.00 0.00 0.00 65 1006.0
20260505052852 17 175 6.4 8.0 0.00 0.00 0.00 64 1006.2
20260505052348 17 209 6.4 6.4 0.00 0.00 0.00 64 1006.3
20260505051846 17 171 3.2 8.0 0.00 0.00 0.00 64 1006.3
20260505051343 17 155 6.4 6.4 0.00 0.00 0.00 64 1006.3
20260505050841 17 197 6.4 8.0 0.00 0.00 0.00 64 1006.2
20260505050339 17 183 3.2 8.0 0.00 0.00 0.00 64 1006.3
20260505041306 17 190 4.8 9.7 0.00 0.00 0.00 64 1006.4
20260505040803 17 157 6.4 9.7 0.00 0.00 0.00 64 1006.5
20260505040301 17 176 6.4 8.0 0.00 0.00 0.00 63 1006.3
20260505035757 17 170 6.4 9.7 0.00 0.00 0.00 64 1006.2
20260505035253 17 170 6.4 9.7 0.00 0.00 0.00 63 1006.4
20260505034751 17 174 6.4 11.3 0.00 0.00 0.00 64 1006.2
20260505034247 17 179 6.4 6.4 0.00 0.00 0.00 64 1006.5
20260505033744 17 165 6.4 9.7 0.00 0.00 0.00 64 1006.2
20260505033242 17 177 4.8 9.7 0.00 0.00 0.00 64 1006.2
20260505032740 17 179 4.8 6.4 0.00 0.00 0.00 64 1006.4
20260505032235 17 171 6.4 9.7 0.00 0.00 0.00 63 1006.3
20260505031733 17 173 6.4 8.0 0.00 0.00 0.00 63 1006.3
20260505031229 17 173 8.0 8.0 0.00 0.00 0.00 63 1006.4
20260505030726 17 168 3.2 6.4 0.00 0.00 0.00 62 1006.3
20260505030222 17 168 4.8 8.0 0.00 0.00 0.00 62 1006.4
20260505025718 17 165 4.8 8.0 0.00 0.00 0.00 63 1006.5
20260505025217 17 172 4.8 6.4 0.00 0.00 0.00 62 1006.7
20260505024714 17 183 3.2 6.4 0.00 0.00 0.00 62 1006.5
20260505024211 17 177 6.4 6.4 0.00 0.00 0.00 61 1006.8
20260505023708 17 155 6.4 8.0 0.00 0.00 0.00 61 1006.7
20260505023206 17 176 3.2 6.4 0.00 0.00 0.00 61 1006.7
20260505022703 17 199 4.8 6.4 0.00 0.00 0.00 61 1006.6
20260505022200 17 180 8.0 9.7 0.00 0.00 0.00 60 1006.6
20260505021656 17 195 6.4 12.9 0.00 0.00 0.00 60 1006.4
20260505021153 18 196 4.8 9.7 0.00 0.00 0.00 60 1006.5
20260505020649 18 214 3.2 9.7 0.00 0.00 0.00 60 1006.6
20260505020145 18 166 4.8 8.0 0.00 0.00 0.00 60 1006.4
20260505015642 18 188 8.0 8.0 0.00 0.00 0.00 59 1006.7
20260505015139 18 193 4.8 9.7 0.00 0.00 0.00 60 1006.5
20260505014636 18 186 4.8 8.0 0.00 0.00 0.00 59 1006.7
20260505014133 18 222 4.8 9.7 0.00 0.00 0.00 59 1006.7
20260505013630 18 200 3.2 6.4 0.00 0.00 0.00 59 1006.5
20260505013127 18 170 4.8 6.4 0.00 0.00 0.00 58 1006.5
20260505012626 18 190 1.6 8.0 0.00 0.00 0.00 58 1006.5
20260505012122 18 175 6.4 8.0 0.00 0.00 0.00 57 1006.4
20260505011618 18 220 6.4 16.1 0.00 0.00 0.00 57 1006.4
20260505011115 18 195 4.8 17.7 0.00 0.00 0.00 57 1006.3
20260505010610 18 200 6.4 11.3 0.00 0.00 0.00 56 1006.3
20260505010108 18 195 3.2 9.7 0.00 0.00 0.00 56 1006.2
20260505005603 18 230 6.4 17.7 0.00 0.00 0.00 56 1006.2
20260505005101 19 200 6.4 9.7 0.00 0.00 0.00 56 1006.2
20260505004558 19 178 6.4 19.3 0.00 0.00 0.00 55 1006.2
20260505004055 19 171 6.4 17.7 0.00 0.00 0.00 55 1006.0
20260505003552 19 194 11.3 14.5 0.00 0.00 0.00 55 1006.0
20260505003049 19 234 14.5 16.1 0.00 0.00 0.00 55 1005.8
20260505002550 19 198 6.4 12.9 0.00 0.00 0.00 55 1005.8
20260505002049 19 215 9.7 9.7 0.00 0.00 0.00 55 1005.7
20260505001545 19 230 4.8 14.5 0.00 0.00 0.00 54 1005.7
20260505001043 20 187 6.4 12.9 0.00 0.00 0.00 54 1005.6
20260505000540 20 183 6.4 11.3 0.00 0.00 0.00 53 1005.7
20260505000038 20 186 3.2 19.3 0.00 0.00 0.00 53 1005.7
20260504235534 20 229 17.7 17.7 0.00 0.00 0.00 53 1005.7
20260504235031 20 201 6.4 14.5 0.00 0.00 0.00 53 1005.5
20260504234528 20 122 1.6 12.9 0.00 0.00 0.00 53 1005.7
20260504234025 20 181 6.4 12.9 0.00 0.00 0.00 52 1005.7
20260504233520 20 246 6.4 14.5 0.00 0.00 0.00 53 1005.6
20260504233017 20 207 4.8 20.9 0.00 0.00 0.00 52 1005.6
20260504232514 20 227 11.3 20.9 0.00 0.00 0.00 52 1005.5
20260504232012 20 174 6.4 9.7 0.00 0.00 0.00 52 1005.3
20260504231508 21 209 6.4 14.5 0.00 0.00 0.00 51 1005.3
20260504231004 21 143 6.4 24.1 0.00 0.00 0.00 51 1005.8
20260504230501 21 226 16.1 16.1 0.00 0.00 0.00 51 1005.9
20260504230000 21 216 16.1 17.7 0.00 0.00 0.00 51 1005.9
20260504225456 21 205 8.0 20.9 0.00 0.00 0.00 50 1005.8
20260504224953 21 170 9.7 16.1 0.00 0.00 0.00 50 1005.8
20260504224450 21 226 8.0 19.3 0.00 0.00 0.00 52 1005.8
20260504223947 21 220 16.1 19.3 0.00 0.00 0.00 52 1006.1
20260504223443 20 219 4.8 9.7 0.00 0.00 0.00 53 1006.0
20260504222938 20 161 3.2 14.5 0.00 0.00 0.00 52 1005.9
20260504222437 21 203 8.0 17.7 0.00 0.00 0.00 52 1006.0
20260504221934 21 200 8.0 8.0 0.00 0.00 0.00 51 1005.9
20260504221431 21 229 4.8 9.7 0.00 0.00 0.00 51 1005.9
20260504220928 21 189 4.8 17.7 0.00 0.00 0.00 51 1006.1
20260504220425 21 227 3.2 14.5 0.00 0.00 0.00 50 1006.3
20260504215922 21 210 6.4 11.3 0.00 0.00 0.00 50 1006.1
20260504215419 21 211 4.8 14.5 0.00 0.00 0.00 50 1006.0
20260504214915 21 215 3.2 14.5 0.00 0.00 0.00 49 1006.1
20260504214411 21 188 6.4 9.7 0.00 0.00 0.00 50 1005.9
20260504213908 21 213 9.7 11.3 0.00 0.00 0.00 50 1005.9
20260504213404 21 246 9.7 25.7 0.00 0.00 0.00 49 1006.0
20260504212902 21 203 8.0 11.3 0.00 0.00 0.00 50 1006.2
20260504212357 21 208 4.8 14.5 0.00 0.00 0.00 49 1005.9
20260504211855 21 226 11.3 12.9 0.00 0.00 0.00 50 1006.0
20260504211351 21 200 3.2 6.4 0.00 0.00 0.00 50 1005.8
20260504210849 21 193 6.4 9.7 0.00 0.00 0.00 48 1006.2
20260504210345 22 182 6.4 9.7 0.00 0.00 0.00 47 1005.8
20260504205843 22 231 14.5 27.4 0.00 0.00 0.00 45 1006.0
20260504205341 22 243 6.4 17.7 0.00 0.00 0.00 50 1006.0
20260504204838 22 253 16.1 22.5 0.00 0.00 0.00 47 1005.9
20260504204337 22 207 3.2 9.7 0.00 0.00 0.00 47 1005.8
20260504203836 22 214 9.7 19.3 0.00 0.00 0.00 48 1005.9
20260504203332 22 150 9.7 16.1 0.00 0.00 0.00 46 1005.8
20260504202827 22 234 11.3 12.9 0.00 0.00 0.00 46 1006.0
20260504202325 21 211 6.4 20.9 0.00 0.00 0.00 48 1006.0
20260504201822 21 170 6.4 11.3 0.00 0.00 0.00 47 1006.2
20260504201319 21 230 17.7 27.4 0.00 0.00 0.00 46 1006.2
20260504200817 21 218 16.1 30.6 0.00 0.00 0.00 46 1006.3
20260504200313 22 264 4.8 17.7 0.00 0.00 0.00 46 1006.3
20260504195809 22 197 6.4 12.9 0.00 0.00 0.00 49 1006.2
20260504195305 22 192 4.8 12.9 0.00 0.00 0.00 45 1006.4
20260504194802 22 220 11.3 20.9 0.00 0.00 0.00 49 1006.4
20260504194258 22 206 12.9 19.3 0.00 0.00 0.00 47 1006.3
20260504193754 22 206 6.4 19.3 0.00 0.00 0.00 49 1006.6
20260504193252 21 166 6.4 12.9 0.00 0.00 0.00 46 1006.5
20260504192750 21 181 9.7 20.9 0.00 0.00 0.00 47 1006.7
20260504192248 22 233 11.3 17.7 0.00 0.00 0.00 47 1006.7
20260504191747 22 233 17.7 17.7 0.00 0.00 0.00 47 1006.7
20260504191243 22 212 4.8 19.3 0.00 0.00 0.00 46 1006.8
20260504190739 21 237 14.5 20.9 0.00 0.00 0.00 48 1006.6
20260504190235 21 189 8.0 16.1 0.00 0.00 0.00 46 1006.7
20260504185732 22 142 6.4 8.0 0.00 0.00 0.00 45 1006.8
20260504185229 21 236 14.5 24.1 0.00 0.00 0.00 46 1006.9
20260504184725 21 173 3.2 17.7 0.00 0.00 0.00 48 1006.9
20260504184221 21 186 8.0 11.3 0.00 0.00 0.00 46 1007.2
20260504183717 21 221 14.5 27.4 0.00 0.00 0.00 46 1007.0
20260504183214 21 214 14.5 16.1 0.00 0.00 0.00 47 1007.1
20260504182712 21 208 6.4 12.9 0.00 0.00 0.00 49 1007.3
20260504182209 21 190 6.4 20.9 0.00 0.00 0.00 48 1007.2
20260504181707 21 226 3.2 19.3 0.00 0.00 0.00 45 1007.2
20260504181204 21 227 6.4 12.9 0.00 0.00 0.00 48 1007.3
20260504180703 21 195 9.7 14.5 0.00 0.00 0.00 46 1007.3
20260504180201 21 212 9.7 17.7 0.00 0.00 0.00 46 1007.4
20260504175658 21 223 12.9 14.5 0.00 0.00 0.00 46 1007.4
20260504175154 21 144 3.2 19.3 0.00 0.00 0.00 47 1007.2
20260504174653 21 193 4.8 14.5 0.00 0.00 0.00 49 1007.2
20260504174149 20 180 6.4 20.9 0.00 0.00 0.00 47 1007.5
20260504173646 20 167 6.4 19.3 0.00 0.00 0.00 50 1007.5
20260504173144 20 214 8.0 9.7 0.00 0.00 0.00 48 1007.6
20260504172640 20 216 11.3 24.1 0.00 0.00 0.00 46 1007.7
20260504172137 20 170 6.4 12.9 0.00 0.00 0.00 47 1007.6
20260504171633 20 192 8.0 20.9 0.00 0.00 0.00 48 1007.7
20260504171130 20 221 8.0 19.3 0.00 0.00 0.00 47 1007.8
20260504170626 20 151 1.6 17.7 0.00 0.00 0.00 48 1007.6
20260504170124 20 251 4.8 17.7 0.00 0.00 0.00 44 1007.7
20260504151010 17 124 6.4 14.5 0.00 0.00 0.00 50 1009.5
20260504150507 17 213 8.0 22.5 0.00 0.00 0.00 51 1009.6